<?xml version="1.0" encoding="UTF-8" standalone="no" ?>
<gpx xmlns="http://www.topografix.com/GPX/1/1" xmlns:xsi="http://www.w3.org/2001/XMLSchema-instance" xsi:schemaLocation="http://www.topografix.com/GPX/1/1 http://www.topografix.com/GPX/1/1/gpx.xsd" version="1.1" creator="VisuGPX - https://www.visugpx.com">
  <metadata>
    <name>St-Bauzile et Plateau de Lérou au départ de Riboulas (07)</name>
    <desc><![CDATA[Sortie du 20 mars 2011 au programme du SCLapalud]]></desc>
  </metadata>
  <trk>
    <name><![CDATA[ACTIVE LOG]]></name>
    <trkseg>
      <trkpt lat="44.66377" lon="4.68444">
        <ele>225.085938</ele>
        <time>2010-12-27T12:21:08Z</time>
      </trkpt>
      <trkpt lat="44.66427" lon="4.68432">
        <ele>230.85376</ele>
        <time>2010-12-27T12:21:08Z</time>
      </trkpt>
      <trkpt lat="44.6648" lon="4.68379">
        <ele>229.892334</ele>
        <time>2010-12-27T12:21:08Z</time>
      </trkpt>
      <trkpt lat="44.66533" lon="4.68348">
        <ele>229.892334</ele>
        <time>2010-12-27T12:21:08Z</time>
      </trkpt>
      <trkpt lat="44.66572" lon="4.6835">
        <ele>236.140991</ele>
        <time>2010-12-27T12:21:08Z</time>
      </trkpt>
      <trkpt lat="44.66621" lon="4.68282">
        <ele>252.963989</ele>
        <time>2010-12-27T12:21:08Z</time>
      </trkpt>
      <trkpt lat="44.66645" lon="4.68243">
        <ele>255.848022</ele>
        <time>2010-12-27T12:21:08Z</time>
      </trkpt>
      <trkpt lat="44.66688" lon="4.68208">
        <ele>262.096558</ele>
        <time>2010-12-27T12:21:08Z</time>
      </trkpt>
      <trkpt lat="44.6669" lon="4.68223">
        <ele>263.057861</ele>
        <time>2010-12-27T12:21:08Z</time>
      </trkpt>
      <trkpt lat="44.6672" lon="4.68177">
        <ele>264.980591</ele>
        <time>2010-12-27T12:21:08Z</time>
      </trkpt>
      <trkpt lat="44.66756" lon="4.68083">
        <ele>272.19043</ele>
        <time>2010-12-27T12:21:08Z</time>
      </trkpt>
      <trkpt lat="44.66795" lon="4.67989">
        <ele>278.919678</ele>
        <time>2010-12-27T12:21:08Z</time>
      </trkpt>
      <trkpt lat="44.66824" lon="4.67932">
        <ele>284.206909</ele>
        <time>2010-12-27T12:21:08Z</time>
      </trkpt>
      <trkpt lat="44.66854" lon="4.67904">
        <ele>289.974854</ele>
        <time>2010-12-27T12:21:08Z</time>
      </trkpt>
      <trkpt lat="44.66882" lon="4.67791">
        <ele>292.858765</ele>
        <time>2010-12-27T12:21:08Z</time>
      </trkpt>
      <trkpt lat="44.66929" lon="4.67793">
        <ele>298.146118</ele>
        <time>2010-12-27T12:21:08Z</time>
      </trkpt>
      <trkpt lat="44.66998" lon="4.67745">
        <ele>301.991333</ele>
        <time>2010-12-27T12:21:08Z</time>
      </trkpt>
      <trkpt lat="44.67047" lon="4.67784">
        <ele>304.875244</ele>
        <time>2010-12-27T12:21:08Z</time>
      </trkpt>
      <trkpt lat="44.67071" lon="4.67752">
        <ele>309.201172</ele>
        <time>2010-12-27T12:21:08Z</time>
      </trkpt>
      <trkpt lat="44.67089" lon="4.67672">
        <ele>317.853027</ele>
        <time>2010-12-27T12:21:08Z</time>
      </trkpt>
      <trkpt lat="44.67142" lon="4.67516">
        <ele>333.234131</ele>
        <time>2010-12-27T12:21:08Z</time>
      </trkpt>
      <trkpt lat="44.67175" lon="4.67437">
        <ele>338.040771</ele>
        <time>2010-12-27T12:21:08Z</time>
      </trkpt>
      <trkpt lat="44.67164" lon="4.67353">
        <ele>344.77002</ele>
        <time>2010-12-27T12:21:08Z</time>
      </trkpt>
      <trkpt lat="44.67225" lon="4.67293">
        <ele>348.134644</ele>
        <time>2010-12-27T12:21:08Z</time>
      </trkpt>
      <trkpt lat="44.6727" lon="4.67258">
        <ele>344.77002</ele>
        <time>2010-12-27T12:21:08Z</time>
      </trkpt>
      <trkpt lat="44.67337" lon="4.6721">
        <ele>338.040771</ele>
        <time>2010-12-27T12:21:08Z</time>
      </trkpt>
      <trkpt lat="44.67354" lon="4.67148">
        <ele>346.212036</ele>
        <time>2010-12-27T12:21:08Z</time>
      </trkpt>
      <trkpt lat="44.67374" lon="4.6716">
        <ele>341.885986</ele>
        <time>2010-12-27T12:21:08Z</time>
      </trkpt>
      <trkpt lat="44.67427" lon="4.6714">
        <ele>342.84729</ele>
        <time>2010-12-27T12:21:08Z</time>
      </trkpt>
      <trkpt lat="44.6751" lon="4.67147">
        <ele>342.84729</ele>
        <time>2010-12-27T12:21:08Z</time>
      </trkpt>
      <trkpt lat="44.67574" lon="4.67099">
        <ele>346.212036</ele>
        <time>2010-12-27T12:21:08Z</time>
      </trkpt>
      <trkpt lat="44.67641" lon="4.67028">
        <ele>347.173218</ele>
        <time>2010-12-27T12:21:08Z</time>
      </trkpt>
      <trkpt lat="44.67663" lon="4.66956">
        <ele>351.979858</ele>
        <time>2010-12-27T12:21:08Z</time>
      </trkpt>
      <trkpt lat="44.67733" lon="4.66863">
        <ele>352.941162</ele>
        <time>2010-12-27T12:21:08Z</time>
      </trkpt>
      <trkpt lat="44.67803" lon="4.66808">
        <ele>354.86377</ele>
        <time>2010-12-27T12:21:08Z</time>
      </trkpt>
      <trkpt lat="44.67822" lon="4.66772">
        <ele>360.151123</ele>
        <time>2010-12-27T12:21:08Z</time>
      </trkpt>
      <trkpt lat="44.67837" lon="4.6678">
        <ele>359.189697</ele>
        <time>2010-12-27T12:21:08Z</time>
      </trkpt>
      <trkpt lat="44.67907" lon="4.6683">
        <ele>352.941162</ele>
        <time>2010-12-27T12:21:08Z</time>
      </trkpt>
      <trkpt lat="44.67951" lon="4.66836">
        <ele>349.095825</ele>
        <time>2010-12-27T12:21:08Z</time>
      </trkpt>
      <trkpt lat="44.67983" lon="4.66789">
        <ele>350.057251</ele>
        <time>2010-12-27T12:21:08Z</time>
      </trkpt>
      <trkpt lat="44.68041" lon="4.6677">
        <ele>339.002075</ele>
        <time>2010-12-27T12:21:08Z</time>
      </trkpt>
      <trkpt lat="44.68071" lon="4.66738">
        <ele>339.002075</ele>
        <time>2010-12-27T12:21:08Z</time>
      </trkpt>
      <trkpt lat="44.68108" lon="4.66714">
        <ele>339.002075</ele>
        <time>2010-12-27T12:21:08Z</time>
      </trkpt>
      <trkpt lat="44.68173" lon="4.66702">
        <ele>337.079468</ele>
        <time>2010-12-27T12:21:08Z</time>
      </trkpt>
      <trkpt lat="44.68222" lon="4.66748">
        <ele>330.830933</ele>
        <time>2010-12-27T12:21:08Z</time>
      </trkpt>
      <trkpt lat="44.68286" lon="4.66703">
        <ele>326.02417</ele>
        <time>2010-12-27T12:21:08Z</time>
      </trkpt>
      <trkpt lat="44.68329" lon="4.66639">
        <ele>317.853027</ele>
        <time>2010-12-27T12:21:08Z</time>
      </trkpt>
      <trkpt lat="44.68348" lon="4.665">
        <ele>317.853027</ele>
        <time>2010-12-27T12:21:08Z</time>
      </trkpt>
      <trkpt lat="44.68362" lon="4.66435">
        <ele>317.853027</ele>
        <time>2010-12-27T12:21:08Z</time>
      </trkpt>
      <trkpt lat="44.6838" lon="4.66436">
        <ele>316.891724</ele>
        <time>2010-12-27T12:21:08Z</time>
      </trkpt>
      <trkpt lat="44.68415" lon="4.66522">
        <ele>302.952515</ele>
        <time>2010-12-27T12:21:08Z</time>
      </trkpt>
      <trkpt lat="44.68441" lon="4.66548">
        <ele>305.83667</ele>
        <time>2010-12-27T12:21:08Z</time>
      </trkpt>
      <trkpt lat="44.68472" lon="4.66531">
        <ele>319.775635</ele>
        <time>2010-12-27T12:21:08Z</time>
      </trkpt>
      <trkpt lat="44.68481" lon="4.66488">
        <ele>325.062988</ele>
        <time>2010-12-27T12:21:08Z</time>
      </trkpt>
      <trkpt lat="44.68532" lon="4.66453">
        <ele>327.946777</ele>
        <time>2010-12-27T12:21:08Z</time>
      </trkpt>
      <trkpt lat="44.68567" lon="4.6637">
        <ele>335.156738</ele>
        <time>2010-12-27T12:21:08Z</time>
      </trkpt>
      <trkpt lat="44.68503" lon="4.66302">
        <ele>346.212036</ele>
        <time>2010-12-27T12:21:08Z</time>
      </trkpt>
      <trkpt lat="44.68463" lon="4.66234">
        <ele>354.86377</ele>
        <time>2010-12-27T12:21:08Z</time>
      </trkpt>
      <trkpt lat="44.68435" lon="4.66178">
        <ele>364.957642</ele>
        <time>2010-12-27T12:21:08Z</time>
      </trkpt>
      <trkpt lat="44.68439" lon="4.66138">
        <ele>367.841553</ele>
        <time>2010-12-27T12:21:08Z</time>
      </trkpt>
      <trkpt lat="44.6843" lon="4.66082">
        <ele>374.090088</ele>
        <time>2010-12-27T12:21:08Z</time>
      </trkpt>
      <trkpt lat="44.68423" lon="4.66023">
        <ele>376.974243</ele>
        <time>2010-12-27T12:21:08Z</time>
      </trkpt>
      <trkpt lat="44.68387" lon="4.66004">
        <ele>389.951904</ele>
        <time>2010-12-27T12:21:08Z</time>
      </trkpt>
      <trkpt lat="44.68359" lon="4.65966">
        <ele>402.929688</ele>
        <time>2010-12-27T12:21:08Z</time>
      </trkpt>
      <trkpt lat="44.68326" lon="4.65939">
        <ele>414.946167</ele>
        <time>2010-12-27T12:21:08Z</time>
      </trkpt>
      <trkpt lat="44.68327" lon="4.65891">
        <ele>422.156006</ele>
        <time>2010-12-27T12:21:08Z</time>
      </trkpt>
      <trkpt lat="44.68293" lon="4.65864">
        <ele>430.807983</ele>
        <time>2010-12-27T12:21:08Z</time>
      </trkpt>
      <trkpt lat="44.68307" lon="4.65846">
        <ele>433.211304</ele>
        <time>2010-12-27T12:21:08Z</time>
      </trkpt>
      <trkpt lat="44.68333" lon="4.65847">
        <ele>427.92395</ele>
        <time>2010-12-27T12:21:08Z</time>
      </trkpt>
      <trkpt lat="44.68328" lon="4.65811">
        <ele>433.211304</ele>
        <time>2010-12-27T12:21:08Z</time>
      </trkpt>
      <trkpt lat="44.68298" lon="4.65765">
        <ele>445.227661</ele>
        <time>2010-12-27T12:21:08Z</time>
      </trkpt>
      <trkpt lat="44.68261" lon="4.6576">
        <ele>454.84082</ele>
        <time>2010-12-27T12:21:08Z</time>
      </trkpt>
      <trkpt lat="44.6823" lon="4.65755">
        <ele>463.012085</ele>
        <time>2010-12-27T12:21:08Z</time>
      </trkpt>
      <trkpt lat="44.68233" lon="4.65726">
        <ele>468.780029</ele>
        <time>2010-12-27T12:21:08Z</time>
      </trkpt>
      <trkpt lat="44.68194" lon="4.65714">
        <ele>482.238525</ele>
        <time>2010-12-27T12:21:08Z</time>
      </trkpt>
      <trkpt lat="44.68174" lon="4.65672">
        <ele>496.177734</ele>
        <time>2010-12-27T12:21:08Z</time>
      </trkpt>
      <trkpt lat="44.68125" lon="4.65645">
        <ele>513.962036</ele>
        <time>2010-12-27T12:21:08Z</time>
      </trkpt>
      <trkpt lat="44.68076" lon="4.65617">
        <ele>524.055786</ele>
        <time>2010-12-27T12:21:08Z</time>
      </trkpt>
      <trkpt lat="44.6815" lon="4.65605">
        <ele>525.978394</ele>
        <time>2010-12-27T12:21:08Z</time>
      </trkpt>
      <trkpt lat="44.68187" lon="4.65578">
        <ele>525.978394</ele>
        <time>2010-12-27T12:21:08Z</time>
      </trkpt>
      <trkpt lat="44.68193" lon="4.65527">
        <ele>537.994995</ele>
        <time>2010-12-27T12:21:08Z</time>
      </trkpt>
      <trkpt lat="44.68163" lon="4.65573">
        <ele>537.994995</ele>
        <time>2010-12-27T12:21:08Z</time>
      </trkpt>
      <trkpt lat="44.6813" lon="4.65557">
        <ele>546.16626</ele>
        <time>2010-12-27T12:21:08Z</time>
      </trkpt>
      <trkpt lat="44.6806" lon="4.65492">
        <ele>555.779297</ele>
        <time>2010-12-27T12:21:08Z</time>
      </trkpt>
      <trkpt lat="44.68014" lon="4.65442">
        <ele>567.795654</ele>
        <time>2010-12-27T12:21:08Z</time>
      </trkpt>
      <trkpt lat="44.67973" lon="4.65422">
        <ele>575.005859</ele>
        <time>2010-12-27T12:21:08Z</time>
      </trkpt>
      <trkpt lat="44.67924" lon="4.65387">
        <ele>591.828857</ele>
        <time>2010-12-27T12:21:08Z</time>
      </trkpt>
      <trkpt lat="44.67874" lon="4.65418">
        <ele>594.232178</ele>
        <time>2010-12-27T12:21:08Z</time>
      </trkpt>
      <trkpt lat="44.67829" lon="4.65427">
        <ele>605.768066</ele>
        <time>2010-12-27T12:21:08Z</time>
      </trkpt>
      <trkpt lat="44.67789" lon="4.65488">
        <ele>609.132568</ele>
        <time>2010-12-27T12:21:08Z</time>
      </trkpt>
      <trkpt lat="44.67748" lon="4.65534">
        <ele>616.822998</ele>
        <time>2010-12-27T12:21:08Z</time>
      </trkpt>
      <trkpt lat="44.67699" lon="4.65506">
        <ele>627.878174</ele>
        <time>2010-12-27T12:21:08Z</time>
      </trkpt>
      <trkpt lat="44.6769" lon="4.65451">
        <ele>630.762207</ele>
        <time>2010-12-27T12:21:08Z</time>
      </trkpt>
      <trkpt lat="44.67649" lon="4.65412">
        <ele>633.165283</ele>
        <time>2010-12-27T12:21:08Z</time>
      </trkpt>
      <trkpt lat="44.67578" lon="4.65435">
        <ele>627.878174</ele>
        <time>2010-12-27T12:21:08Z</time>
      </trkpt>
      <trkpt lat="44.67527" lon="4.65473">
        <ele>622.110352</ele>
        <time>2010-12-27T12:21:08Z</time>
      </trkpt>
      <trkpt lat="44.67496" lon="4.65501">
        <ele>617.78418</ele>
        <time>2010-12-27T12:21:08Z</time>
      </trkpt>
      <trkpt lat="44.67475" lon="4.6549">
        <ele>614.900391</ele>
        <time>2010-12-27T12:21:08Z</time>
      </trkpt>
      <trkpt lat="44.67476" lon="4.65438">
        <ele>614.900391</ele>
        <time>2010-12-27T12:21:08Z</time>
      </trkpt>
      <trkpt lat="44.67447" lon="4.65433">
        <ele>610.09375</ele>
        <time>2010-12-27T12:21:08Z</time>
      </trkpt>
      <trkpt lat="44.67445" lon="4.65397">
        <ele>611.055176</ele>
        <time>2010-12-27T12:21:08Z</time>
      </trkpt>
      <trkpt lat="44.67422" lon="4.65396">
        <ele>607.209961</ele>
        <time>2010-12-27T12:21:08Z</time>
      </trkpt>
      <trkpt lat="44.67413" lon="4.65436">
        <ele>604.806641</ele>
        <time>2010-12-27T12:21:08Z</time>
      </trkpt>
      <trkpt lat="44.67405" lon="4.65476">
        <ele>600.961182</ele>
        <time>2010-12-27T12:21:08Z</time>
      </trkpt>
      <trkpt lat="44.67346" lon="4.65411">
        <ele>590.867432</ele>
        <time>2010-12-27T12:21:08Z</time>
      </trkpt>
      <trkpt lat="44.67355" lon="4.65477">
        <ele>587.983398</ele>
        <time>2010-12-27T12:21:08Z</time>
      </trkpt>
      <trkpt lat="44.67304" lon="4.65523">
        <ele>580.773682</ele>
        <time>2010-12-27T12:21:08Z</time>
      </trkpt>
      <trkpt lat="44.67261" lon="4.65569">
        <ele>579.812256</ele>
        <time>2010-12-27T12:21:08Z</time>
      </trkpt>
      <trkpt lat="44.67205" lon="4.65621">
        <ele>577.889648</ele>
        <time>2010-12-27T12:21:08Z</time>
      </trkpt>
      <trkpt lat="44.67142" lon="4.65659">
        <ele>572.121826</ele>
        <time>2010-12-27T12:21:08Z</time>
      </trkpt>
      <trkpt lat="44.67084" lon="4.65686">
        <ele>570.198975</ele>
        <time>2010-12-27T12:21:08Z</time>
      </trkpt>
      <trkpt lat="44.67025" lon="4.65749">
        <ele>555.779297</ele>
        <time>2010-12-27T12:21:08Z</time>
      </trkpt>
      <trkpt lat="44.67031" lon="4.65698">
        <ele>552.895264</ele>
        <time>2010-12-27T12:21:08Z</time>
      </trkpt>
      <trkpt lat="44.67064" lon="4.65634">
        <ele>545.204834</ele>
        <time>2010-12-27T12:21:08Z</time>
      </trkpt>
      <trkpt lat="44.67128" lon="4.65578">
        <ele>538.956299</ele>
        <time>2010-12-27T12:21:08Z</time>
      </trkpt>
      <trkpt lat="44.67076" lon="4.65565">
        <ele>524.055786</ele>
        <time>2010-12-27T12:21:08Z</time>
      </trkpt>
      <trkpt lat="44.67108" lon="4.65548">
        <ele>525.978394</ele>
        <time>2010-12-27T12:21:08Z</time>
      </trkpt>
      <trkpt lat="44.67176" lon="4.65528">
        <ele>539.917603</ele>
        <time>2010-12-27T12:21:08Z</time>
      </trkpt>
      <trkpt lat="44.67198" lon="4.65467">
        <ele>532.227051</ele>
        <time>2010-12-27T12:21:08Z</time>
      </trkpt>
      <trkpt lat="44.67179" lon="4.65397">
        <ele>523.094604</ele>
        <time>2010-12-27T12:21:08Z</time>
      </trkpt>
      <trkpt lat="44.67175" lon="4.65334">
        <ele>528.862549</ele>
        <time>2010-12-27T12:21:08Z</time>
      </trkpt>
      <trkpt lat="44.67114" lon="4.65266">
        <ele>523.094604</ele>
        <time>2010-12-27T12:21:08Z</time>
      </trkpt>
      <trkpt lat="44.67096" lon="4.65217">
        <ele>525.978394</ele>
        <time>2010-12-27T12:21:08Z</time>
      </trkpt>
      <trkpt lat="44.67058" lon="4.65176">
        <ele>524.055786</ele>
        <time>2010-12-27T12:21:08Z</time>
      </trkpt>
      <trkpt lat="44.6708" lon="4.65114">
        <ele>537.994995</ele>
        <time>2010-12-27T12:21:08Z</time>
      </trkpt>
      <trkpt lat="44.67087" lon="4.65059">
        <ele>543.762817</ele>
        <time>2010-12-27T12:21:08Z</time>
      </trkpt>
      <trkpt lat="44.67089" lon="4.64924">
        <ele>549.050049</ele>
        <time>2010-12-27T12:21:08Z</time>
      </trkpt>
      <trkpt lat="44.67084" lon="4.64788">
        <ele>546.16626</ele>
        <time>2010-12-27T12:21:08Z</time>
      </trkpt>
      <trkpt lat="44.67076" lon="4.64689">
        <ele>545.204834</ele>
        <time>2010-12-27T12:21:08Z</time>
      </trkpt>
      <trkpt lat="44.67056" lon="4.6463">
        <ele>539.917603</ele>
        <time>2010-12-27T12:21:08Z</time>
      </trkpt>
      <trkpt lat="44.67021" lon="4.64591">
        <ele>532.227051</ele>
        <time>2010-12-27T12:21:08Z</time>
      </trkpt>
      <trkpt lat="44.67001" lon="4.64536">
        <ele>548.088867</ele>
        <time>2010-12-27T12:21:08Z</time>
      </trkpt>
      <trkpt lat="44.66981" lon="4.64583">
        <ele>540.878906</ele>
        <time>2010-12-27T12:21:08Z</time>
      </trkpt>
      <trkpt lat="44.66961" lon="4.64582">
        <ele>548.088867</ele>
        <time>2010-12-27T12:21:08Z</time>
      </trkpt>
      <trkpt lat="44.66939" lon="4.64625">
        <ele>541.84021</ele>
        <time>2010-12-27T12:21:08Z</time>
      </trkpt>
      <trkpt lat="44.66888" lon="4.64674">
        <ele>540.878906</ele>
        <time>2010-12-27T12:21:08Z</time>
      </trkpt>
      <trkpt lat="44.66827" lon="4.64723">
        <ele>542.801514</ele>
        <time>2010-12-27T12:21:08Z</time>
      </trkpt>
      <trkpt lat="44.66755" lon="4.64782">
        <ele>550.011475</ele>
        <time>2010-12-27T12:21:08Z</time>
      </trkpt>
      <trkpt lat="44.66702" lon="4.64835">
        <ele>549.050049</ele>
        <time>2010-12-27T12:21:08Z</time>
      </trkpt>
      <trkpt lat="44.66659" lon="4.64888">
        <ele>550.972656</ele>
        <time>2010-12-27T12:21:08Z</time>
      </trkpt>
      <trkpt lat="44.66618" lon="4.64967">
        <ele>550.011475</ele>
        <time>2010-12-27T12:21:08Z</time>
      </trkpt>
      <trkpt lat="44.6658" lon="4.65028">
        <ele>541.84021</ele>
        <time>2010-12-27T12:21:08Z</time>
      </trkpt>
      <trkpt lat="44.66502" lon="4.65024">
        <ele>537.994995</ele>
        <time>2010-12-27T12:21:08Z</time>
      </trkpt>
      <trkpt lat="44.66437" lon="4.64989">
        <ele>543.762817</ele>
        <time>2010-12-27T12:21:08Z</time>
      </trkpt>
      <trkpt lat="44.66324" lon="4.64999">
        <ele>534.149658</ele>
        <time>2010-12-27T12:21:08Z</time>
      </trkpt>
      <trkpt lat="44.66292" lon="4.64946">
        <ele>542.801514</ele>
        <time>2010-12-27T12:21:08Z</time>
      </trkpt>
      <trkpt lat="44.66239" lon="4.64962">
        <ele>529.82373</ele>
        <time>2010-12-27T12:21:08Z</time>
      </trkpt>
      <trkpt lat="44.66143" lon="4.65028">
        <ele>540.878906</ele>
        <time>2010-12-27T12:21:08Z</time>
      </trkpt>
      <trkpt lat="44.6613" lon="4.65064">
        <ele>538.956299</ele>
        <time>2010-12-27T12:21:08Z</time>
      </trkpt>
      <trkpt lat="44.66133" lon="4.65141">
        <ele>526.939819</ele>
        <time>2010-12-27T12:21:08Z</time>
      </trkpt>
      <trkpt lat="44.66112" lon="4.65169">
        <ele>525.017212</ele>
        <time>2010-12-27T12:21:08Z</time>
      </trkpt>
      <trkpt lat="44.66064" lon="4.652">
        <ele>524.055786</ele>
        <time>2010-12-27T12:21:08Z</time>
      </trkpt>
      <trkpt lat="44.66019" lon="4.65221">
        <ele>524.055786</ele>
        <time>2010-12-27T12:21:08Z</time>
      </trkpt>
      <trkpt lat="44.65979" lon="4.65241">
        <ele>522.133179</ele>
        <time>2010-12-27T12:21:08Z</time>
      </trkpt>
      <trkpt lat="44.6595" lon="4.65254">
        <ele>521.171997</ele>
        <time>2010-12-27T12:21:08Z</time>
      </trkpt>
      <trkpt lat="44.65911" lon="4.65278">
        <ele>517.807251</ele>
        <time>2010-12-27T12:21:08Z</time>
      </trkpt>
      <trkpt lat="44.65889" lon="4.6531">
        <ele>513.962036</ele>
        <time>2010-12-27T12:21:08Z</time>
      </trkpt>
      <trkpt lat="44.65844" lon="4.65334">
        <ele>513.000732</ele>
        <time>2010-12-27T12:21:08Z</time>
      </trkpt>
      <trkpt lat="44.65803" lon="4.65322">
        <ele>510.116699</ele>
        <time>2010-12-27T12:21:08Z</time>
      </trkpt>
      <trkpt lat="44.6575" lon="4.65316">
        <ele>505.790894</ele>
        <time>2010-12-27T12:21:08Z</time>
      </trkpt>
      <trkpt lat="44.65701" lon="4.65295">
        <ele>499.061523</ele>
        <time>2010-12-27T12:21:08Z</time>
      </trkpt>
      <trkpt lat="44.65666" lon="4.65235">
        <ele>486.08374</ele>
        <time>2010-12-27T12:21:08Z</time>
      </trkpt>
      <trkpt lat="44.6559" lon="4.65221">
        <ele>467.818726</ele>
        <time>2010-12-27T12:21:08Z</time>
      </trkpt>
      <trkpt lat="44.65544" lon="4.65201">
        <ele>455.802246</ele>
        <time>2010-12-27T12:21:08Z</time>
      </trkpt>
      <trkpt lat="44.65581" lon="4.65184">
        <ele>460.128174</ele>
        <time>2010-12-27T12:21:08Z</time>
      </trkpt>
      <trkpt lat="44.65571" lon="4.65143">
        <ele>452.918213</ele>
        <time>2010-12-27T12:21:08Z</time>
      </trkpt>
      <trkpt lat="44.65572" lon="4.65114">
        <ele>451.957031</ele>
        <time>2010-12-27T12:21:08Z</time>
      </trkpt>
      <trkpt lat="44.65504" lon="4.65111">
        <ele>441.863159</ele>
        <time>2010-12-27T12:21:08Z</time>
      </trkpt>
      <trkpt lat="44.65455" lon="4.65073">
        <ele>439.94043</ele>
        <time>2010-12-27T12:21:08Z</time>
      </trkpt>
      <trkpt lat="44.6544" lon="4.65057">
        <ele>440.901855</ele>
        <time>2010-12-27T12:21:08Z</time>
      </trkpt>
      <trkpt lat="44.654" lon="4.65071">
        <ele>430.807983</ele>
        <time>2010-12-27T12:21:08Z</time>
      </trkpt>
      <trkpt lat="44.65379" lon="4.65062">
        <ele>430.807983</ele>
        <time>2010-12-27T12:21:08Z</time>
      </trkpt>
      <trkpt lat="44.65327" lon="4.65086">
        <ele>412.062256</ele>
        <time>2010-12-27T12:21:08Z</time>
      </trkpt>
      <trkpt lat="44.6527" lon="4.65061">
        <ele>414.946167</ele>
        <time>2010-12-27T12:21:08Z</time>
      </trkpt>
      <trkpt lat="44.65217" lon="4.65081">
        <ele>408.217041</ele>
        <time>2010-12-27T12:21:08Z</time>
      </trkpt>
      <trkpt lat="44.65147" lon="4.65023">
        <ele>415.907471</ele>
        <time>2010-12-27T12:21:08Z</time>
      </trkpt>
      <trkpt lat="44.65077" lon="4.64999">
        <ele>409.178345</ele>
        <time>2010-12-27T12:21:08Z</time>
      </trkpt>
      <trkpt lat="44.65045" lon="4.65027">
        <ele>401.00708</ele>
        <time>2010-12-27T12:21:08Z</time>
      </trkpt>
      <trkpt lat="44.65057" lon="4.65075">
        <ele>397.161743</ele>
        <time>2010-12-27T12:21:08Z</time>
      </trkpt>
      <trkpt lat="44.64993" lon="4.65032">
        <ele>391.874512</ele>
        <time>2010-12-27T12:21:08Z</time>
      </trkpt>
      <trkpt lat="44.64944" lon="4.65011">
        <ele>387.067993</ele>
        <time>2010-12-27T12:21:08Z</time>
      </trkpt>
      <trkpt lat="44.64918" lon="4.64985">
        <ele>386.106689</ele>
        <time>2010-12-27T12:21:08Z</time>
      </trkpt>
      <trkpt lat="44.64876" lon="4.64994">
        <ele>380.819458</ele>
        <time>2010-12-27T12:21:08Z</time>
      </trkpt>
      <trkpt lat="44.64843" lon="4.6496">
        <ele>377.935425</ele>
        <time>2010-12-27T12:21:08Z</time>
      </trkpt>
      <trkpt lat="44.64798" lon="4.64983">
        <ele>372.16748</ele>
        <time>2010-12-27T12:21:08Z</time>
      </trkpt>
      <trkpt lat="44.64715" lon="4.64932">
        <ele>364.957642</ele>
        <time>2010-12-27T12:21:08Z</time>
      </trkpt>
      <trkpt lat="44.64658" lon="4.64923">
        <ele>358.228394</ele>
        <time>2010-12-27T12:21:08Z</time>
      </trkpt>
      <trkpt lat="44.64568" lon="4.64963">
        <ele>340.924683</ele>
        <time>2010-12-27T12:21:08Z</time>
      </trkpt>
      <trkpt lat="44.64496" lon="4.64931">
        <ele>330.830933</ele>
        <time>2010-12-27T12:21:08Z</time>
      </trkpt>
      <trkpt lat="44.64423" lon="4.64928">
        <ele>321.217773</ele>
        <time>2010-12-27T12:21:08Z</time>
      </trkpt>
      <trkpt lat="44.64468" lon="4.65032">
        <ele>319.775635</ele>
        <time>2010-12-27T12:21:08Z</time>
      </trkpt>
      <trkpt lat="44.64489" lon="4.65139">
        <ele>315.93042</ele>
        <time>2010-12-27T12:21:08Z</time>
      </trkpt>
      <trkpt lat="44.64449" lon="4.65156">
        <ele>305.83667</ele>
        <time>2010-12-27T12:21:08Z</time>
      </trkpt>
      <trkpt lat="44.64388" lon="4.65194">
        <ele>289.01355</ele>
        <time>2010-12-27T12:21:08Z</time>
      </trkpt>
      <trkpt lat="44.64341" lon="4.65221">
        <ele>279.880859</ele>
        <time>2010-12-27T12:21:08Z</time>
      </trkpt>
      <trkpt lat="44.64288" lon="4.65222">
        <ele>274.113037</ele>
        <time>2010-12-27T12:21:08Z</time>
      </trkpt>
      <trkpt lat="44.64265" lon="4.65229">
        <ele>269.787109</ele>
        <time>2010-12-27T12:21:08Z</time>
      </trkpt>
      <trkpt lat="44.64208" lon="4.65204">
        <ele>265.941895</ele>
        <time>2010-12-27T12:21:08Z</time>
      </trkpt>
      <trkpt lat="44.64144" lon="4.65147">
        <ele>265.941895</ele>
        <time>2010-12-27T12:21:08Z</time>
      </trkpt>
      <trkpt lat="44.6416" lon="4.65257">
        <ele>252.963989</ele>
        <time>2010-12-27T12:21:08Z</time>
      </trkpt>
      <trkpt lat="44.64191" lon="4.65358">
        <ele>243.831543</ele>
        <time>2010-12-27T12:21:08Z</time>
      </trkpt>
      <trkpt lat="44.64245" lon="4.65404">
        <ele>249.118774</ele>
        <time>2010-12-27T12:21:08Z</time>
      </trkpt>
      <trkpt lat="44.64281" lon="4.65464">
        <ele>254.886597</ele>
        <time>2010-12-27T12:21:08Z</time>
      </trkpt>
      <trkpt lat="44.64239" lon="4.65557">
        <ele>252.002808</ele>
        <time>2010-12-27T12:21:08Z</time>
      </trkpt>
      <trkpt lat="44.64271" lon="4.65679">
        <ele>260.17395</ele>
        <time>2010-12-27T12:21:08Z</time>
      </trkpt>
      <trkpt lat="44.64299" lon="4.65714">
        <ele>264.980591</ele>
        <time>2010-12-27T12:21:08Z</time>
      </trkpt>
      <trkpt lat="44.64329" lon="4.65792">
        <ele>274.113037</ele>
        <time>2010-12-27T12:21:08Z</time>
      </trkpt>
      <trkpt lat="44.6439" lon="4.65842">
        <ele>281.803589</ele>
        <time>2010-12-27T12:21:08Z</time>
      </trkpt>
      <trkpt lat="44.64429" lon="4.65858">
        <ele>287.09082</ele>
        <time>2010-12-27T12:21:08Z</time>
      </trkpt>
      <trkpt lat="44.64437" lon="4.65884">
        <ele>289.01355</ele>
        <time>2010-12-27T12:21:08Z</time>
      </trkpt>
      <trkpt lat="44.6441" lon="4.65912">
        <ele>289.974854</ele>
        <time>2010-12-27T12:21:08Z</time>
      </trkpt>
      <trkpt lat="44.64441" lon="4.65921">
        <ele>292.858765</ele>
        <time>2010-12-27T12:21:08Z</time>
      </trkpt>
      <trkpt lat="44.64372" lon="4.65951">
        <ele>293.820068</ele>
        <time>2010-12-27T12:21:08Z</time>
      </trkpt>
      <trkpt lat="44.64311" lon="4.66029">
        <ele>301.029907</ele>
        <time>2010-12-27T12:21:08Z</time>
      </trkpt>
      <trkpt lat="44.64302" lon="4.6608">
        <ele>311.123779</ele>
        <time>2010-12-27T12:21:08Z</time>
      </trkpt>
      <trkpt lat="44.643" lon="4.66142">
        <ele>326.02417</ele>
        <time>2010-12-27T12:21:08Z</time>
      </trkpt>
      <trkpt lat="44.64368" lon="4.66174">
        <ele>326.02417</ele>
        <time>2010-12-27T12:21:08Z</time>
      </trkpt>
      <trkpt lat="44.64401" lon="4.66194">
        <ele>326.02417</ele>
        <time>2010-12-27T12:21:08Z</time>
      </trkpt>
      <trkpt lat="44.64432" lon="4.66228">
        <ele>327.946777</ele>
        <time>2010-12-27T12:21:08Z</time>
      </trkpt>
      <trkpt lat="44.64412" lon="4.66282">
        <ele>337.079468</ele>
        <time>2010-12-27T12:21:08Z</time>
      </trkpt>
      <trkpt lat="44.64379" lon="4.66262">
        <ele>337.079468</ele>
        <time>2010-12-27T12:21:08Z</time>
      </trkpt>
      <trkpt lat="44.64345" lon="4.66268">
        <ele>340.924683</ele>
        <time>2010-12-27T12:21:08Z</time>
      </trkpt>
      <trkpt lat="44.64316" lon="4.66267">
        <ele>343.808594</ele>
        <time>2010-12-27T12:21:08Z</time>
      </trkpt>
      <trkpt lat="44.6433" lon="4.6633">
        <ele>350.057251</ele>
        <time>2010-12-27T12:21:08Z</time>
      </trkpt>
      <trkpt lat="44.64347" lon="4.66389">
        <ele>356.786377</ele>
        <time>2010-12-27T12:21:08Z</time>
      </trkpt>
      <trkpt lat="44.64336" lon="4.66425">
        <ele>363.996338</ele>
        <time>2010-12-27T12:21:08Z</time>
      </trkpt>
      <trkpt lat="44.64357" lon="4.66448">
        <ele>365.918945</ele>
        <time>2010-12-27T12:21:08Z</time>
      </trkpt>
      <trkpt lat="44.64345" lon="4.66484">
        <ele>373.128906</ele>
        <time>2010-12-27T12:21:08Z</time>
      </trkpt>
      <trkpt lat="44.644" lon="4.66512">
        <ele>369.764282</ele>
        <time>2010-12-27T12:21:08Z</time>
      </trkpt>
      <trkpt lat="44.64431" lon="4.66514">
        <ele>366.880249</ele>
        <time>2010-12-27T12:21:08Z</time>
      </trkpt>
      <trkpt lat="44.64467" lon="4.66541">
        <ele>368.802979</ele>
        <time>2010-12-27T12:21:08Z</time>
      </trkpt>
      <trkpt lat="44.64524" lon="4.66554">
        <ele>368.802979</ele>
        <time>2010-12-27T12:21:08Z</time>
      </trkpt>
      <trkpt lat="44.64555" lon="4.66585">
        <ele>372.16748</ele>
        <time>2010-12-27T12:21:08Z</time>
      </trkpt>
      <trkpt lat="44.64623" lon="4.66588">
        <ele>368.802979</ele>
        <time>2010-12-27T12:21:08Z</time>
      </trkpt>
      <trkpt lat="44.64662" lon="4.66607">
        <ele>372.16748</ele>
        <time>2010-12-27T12:21:08Z</time>
      </trkpt>
      <trkpt lat="44.64726" lon="4.66654">
        <ele>385.145386</ele>
        <time>2010-12-27T12:21:08Z</time>
      </trkpt>
      <trkpt lat="44.64757" lon="4.66696">
        <ele>392.835938</ele>
        <time>2010-12-27T12:21:08Z</time>
      </trkpt>
      <trkpt lat="44.64784" lon="4.66763">
        <ele>397.161743</ele>
        <time>2010-12-27T12:21:08Z</time>
      </trkpt>
      <trkpt lat="44.64785" lon="4.66825">
        <ele>400.045898</ele>
        <time>2010-12-27T12:21:08Z</time>
      </trkpt>
      <trkpt lat="44.64841" lon="4.66908">
        <ele>404.852295</ele>
        <time>2010-12-27T12:21:08Z</time>
      </trkpt>
      <trkpt lat="44.6487" lon="4.66905">
        <ele>409.178345</ele>
        <time>2010-12-27T12:21:08Z</time>
      </trkpt>
      <trkpt lat="44.64911" lon="4.66936">
        <ele>417.8302</ele>
        <time>2010-12-27T12:21:08Z</time>
      </trkpt>
      <trkpt lat="44.64946" lon="4.66887">
        <ele>426.001343</ele>
        <time>2010-12-27T12:21:08Z</time>
      </trkpt>
      <trkpt lat="44.64995" lon="4.66903">
        <ele>438.017822</ele>
        <time>2010-12-27T12:21:08Z</time>
      </trkpt>
      <trkpt lat="44.65021" lon="4.66904">
        <ele>442.824463</ele>
        <time>2010-12-27T12:21:08Z</time>
      </trkpt>
      <trkpt lat="44.6505" lon="4.66906">
        <ele>450.034424</ele>
        <time>2010-12-27T12:21:08Z</time>
      </trkpt>
      <trkpt lat="44.65044" lon="4.66957">
        <ele>450.034424</ele>
        <time>2010-12-27T12:21:08Z</time>
      </trkpt>
      <trkpt lat="44.6507" lon="4.67064">
        <ele>450.995605</ele>
        <time>2010-12-27T12:21:08Z</time>
      </trkpt>
      <trkpt lat="44.65076" lon="4.67152">
        <ele>448.111816</ele>
        <time>2010-12-27T12:21:08Z</time>
      </trkpt>
      <trkpt lat="44.65115" lon="4.67168">
        <ele>450.995605</ele>
        <time>2010-12-27T12:21:08Z</time>
      </trkpt>
      <trkpt lat="44.65139" lon="4.67162">
        <ele>452.918213</ele>
        <time>2010-12-27T12:21:08Z</time>
      </trkpt>
      <trkpt lat="44.65199" lon="4.67183">
        <ele>450.034424</ele>
        <time>2010-12-27T12:21:08Z</time>
      </trkpt>
      <trkpt lat="44.65269" lon="4.67189">
        <ele>439.94043</ele>
        <time>2010-12-27T12:21:08Z</time>
      </trkpt>
      <trkpt lat="44.65296" lon="4.67154">
        <ele>447.150269</ele>
        <time>2010-12-27T12:21:08Z</time>
      </trkpt>
      <trkpt lat="44.65301" lon="4.67139">
        <ele>448.111816</ele>
        <time>2010-12-27T12:21:08Z</time>
      </trkpt>
      <trkpt lat="44.65333" lon="4.67144">
        <ele>437.056519</ele>
        <time>2010-12-27T12:21:08Z</time>
      </trkpt>
      <trkpt lat="44.65407" lon="4.67202">
        <ele>429.846558</ele>
        <time>2010-12-27T12:21:08Z</time>
      </trkpt>
      <trkpt lat="44.65451" lon="4.67259">
        <ele>424.078735</ele>
        <time>2010-12-27T12:21:08Z</time>
      </trkpt>
      <trkpt lat="44.65489" lon="4.67279">
        <ele>424.078735</ele>
        <time>2010-12-27T12:21:08Z</time>
      </trkpt>
      <trkpt lat="44.65576" lon="4.67367">
        <ele>399.084351</ele>
        <time>2010-12-27T12:21:08Z</time>
      </trkpt>
      <trkpt lat="44.65602" lon="4.67379">
        <ele>395.239136</ele>
        <time>2010-12-27T12:21:08Z</time>
      </trkpt>
      <trkpt lat="44.65612" lon="4.6742">
        <ele>380.819458</ele>
        <time>2010-12-27T12:21:08Z</time>
      </trkpt>
      <trkpt lat="44.65624" lon="4.67442">
        <ele>376.974243</ele>
        <time>2010-12-27T12:21:08Z</time>
      </trkpt>
      <trkpt lat="44.65658" lon="4.67444">
        <ele>378.896851</ele>
        <time>2010-12-27T12:21:08Z</time>
      </trkpt>
      <trkpt lat="44.65681" lon="4.67467">
        <ele>374.090088</ele>
        <time>2010-12-27T12:21:08Z</time>
      </trkpt>
      <trkpt lat="44.65668" lon="4.67506">
        <ele>367.841553</ele>
        <time>2010-12-27T12:21:08Z</time>
      </trkpt>
      <trkpt lat="44.65677" lon="4.67543">
        <ele>363.035034</ele>
        <time>2010-12-27T12:21:08Z</time>
      </trkpt>
      <trkpt lat="44.65681" lon="4.67598">
        <ele>360.151123</ele>
        <time>2010-12-27T12:21:08Z</time>
      </trkpt>
      <trkpt lat="44.65691" lon="4.6765">
        <ele>351.979858</ele>
        <time>2010-12-27T12:21:08Z</time>
      </trkpt>
      <trkpt lat="44.65698" lon="4.6768">
        <ele>343.808594</ele>
        <time>2010-12-27T12:21:08Z</time>
      </trkpt>
      <trkpt lat="44.65707" lon="4.67717">
        <ele>335.156738</ele>
        <time>2010-12-27T12:21:08Z</time>
      </trkpt>
      <trkpt lat="44.65729" lon="4.67688">
        <ele>337.079468</ele>
        <time>2010-12-27T12:21:08Z</time>
      </trkpt>
      <trkpt lat="44.65764" lon="4.67631">
        <ele>335.156738</ele>
        <time>2010-12-27T12:21:08Z</time>
      </trkpt>
      <trkpt lat="44.65799" lon="4.67585">
        <ele>334.195435</ele>
        <time>2010-12-27T12:21:08Z</time>
      </trkpt>
      <trkpt lat="44.65793" lon="4.67497">
        <ele>346.212036</ele>
        <time>2010-12-27T12:21:08Z</time>
      </trkpt>
      <trkpt lat="44.65845" lon="4.67517">
        <ele>344.77002</ele>
        <time>2010-12-27T12:21:08Z</time>
      </trkpt>
      <trkpt lat="44.65901" lon="4.67487">
        <ele>355.825195</ele>
        <time>2010-12-27T12:21:08Z</time>
      </trkpt>
      <trkpt lat="44.65974" lon="4.67471">
        <ele>363.996338</ele>
        <time>2010-12-27T12:21:08Z</time>
      </trkpt>
      <trkpt lat="44.66034" lon="4.67507">
        <ele>368.802979</ele>
        <time>2010-12-27T12:21:08Z</time>
      </trkpt>
      <trkpt lat="44.66046" lon="4.6743">
        <ele>380.819458</ele>
        <time>2010-12-27T12:21:08Z</time>
      </trkpt>
      <trkpt lat="44.66044" lon="4.67365">
        <ele>386.106689</ele>
        <time>2010-12-27T12:21:08Z</time>
      </trkpt>
      <trkpt lat="44.66065" lon="4.67274">
        <ele>387.067993</ele>
        <time>2010-12-27T12:21:08Z</time>
      </trkpt>
      <trkpt lat="44.66084" lon="4.67205">
        <ele>385.145386</ele>
        <time>2010-12-27T12:21:08Z</time>
      </trkpt>
      <trkpt lat="44.66086" lon="4.67114">
        <ele>390.913208</ele>
        <time>2010-12-27T12:21:08Z</time>
      </trkpt>
      <trkpt lat="44.66117" lon="4.67009">
        <ele>389.951904</ele>
        <time>2010-12-27T12:21:08Z</time>
      </trkpt>
      <trkpt lat="44.66158" lon="4.6704">
        <ele>376.012817</ele>
        <time>2010-12-27T12:21:08Z</time>
      </trkpt>
      <trkpt lat="44.66216" lon="4.67042">
        <ele>364.957642</ele>
        <time>2010-12-27T12:21:08Z</time>
      </trkpt>
      <trkpt lat="44.6626" lon="4.67077">
        <ele>351.979858</ele>
        <time>2010-12-27T12:21:08Z</time>
      </trkpt>
      <trkpt lat="44.66288" lon="4.67089">
        <ele>347.173218</ele>
        <time>2010-12-27T12:21:08Z</time>
      </trkpt>
      <trkpt lat="44.66339" lon="4.67153">
        <ele>330.830933</ele>
        <time>2010-12-27T12:21:08Z</time>
      </trkpt>
      <trkpt lat="44.66349" lon="4.67172">
        <ele>327.946777</ele>
        <time>2010-12-27T12:21:08Z</time>
      </trkpt>
      <trkpt lat="44.6627" lon="4.67191">
        <ele>335.156738</ele>
        <time>2010-12-27T12:21:08Z</time>
      </trkpt>
      <trkpt lat="44.66284" lon="4.67268">
        <ele>331.792114</ele>
        <time>2010-12-27T12:21:08Z</time>
      </trkpt>
      <trkpt lat="44.66302" lon="4.67401">
        <ele>333.234131</ele>
        <time>2010-12-27T12:21:08Z</time>
      </trkpt>
      <trkpt lat="44.66329" lon="4.67512">
        <ele>331.792114</ele>
        <time>2010-12-27T12:21:08Z</time>
      </trkpt>
      <trkpt lat="44.66379" lon="4.67609">
        <ele>328.908325</ele>
        <time>2010-12-27T12:21:08Z</time>
      </trkpt>
      <trkpt lat="44.66382" lon="4.67694">
        <ele>316.891724</ele>
        <time>2010-12-27T12:21:08Z</time>
      </trkpt>
      <trkpt lat="44.663" lon="4.67742">
        <ele>308.239868</ele>
        <time>2010-12-27T12:21:08Z</time>
      </trkpt>
      <trkpt lat="44.66269" lon="4.6774">
        <ele>309.201172</ele>
        <time>2010-12-27T12:21:08Z</time>
      </trkpt>
      <trkpt lat="44.66164" lon="4.67787">
        <ele>302.952515</ele>
        <time>2010-12-27T12:21:08Z</time>
      </trkpt>
      <trkpt lat="44.66129" lon="4.67833">
        <ele>290.936157</ele>
        <time>2010-12-27T12:21:08Z</time>
      </trkpt>
      <trkpt lat="44.66083" lon="4.67872">
        <ele>280.842407</ele>
        <time>2010-12-27T12:21:08Z</time>
      </trkpt>
      <trkpt lat="44.6609" lon="4.67909">
        <ele>277.958252</ele>
        <time>2010-12-27T12:21:08Z</time>
      </trkpt>
      <trkpt lat="44.66084" lon="4.67963">
        <ele>272.19043</ele>
        <time>2010-12-27T12:21:08Z</time>
      </trkpt>
      <trkpt lat="44.66105" lon="4.68074">
        <ele>264.980591</ele>
        <time>2010-12-27T12:21:08Z</time>
      </trkpt>
      <trkpt lat="44.66071" lon="4.68076">
        <ele>257.770752</ele>
        <time>2010-12-27T12:21:08Z</time>
      </trkpt>
      <trkpt lat="44.66093" lon="4.68139">
        <ele>255.848022</ele>
        <time>2010-12-27T12:21:08Z</time>
      </trkpt>
      <trkpt lat="44.66167" lon="4.68099">
        <ele>254.886597</ele>
        <time>2010-12-27T12:21:08Z</time>
      </trkpt>
      <trkpt lat="44.66209" lon="4.68122">
        <ele>249.118774</ele>
        <time>2010-12-27T12:21:08Z</time>
      </trkpt>
      <trkpt lat="44.66245" lon="4.68138">
        <ele>244.792847</ele>
        <time>2010-12-27T12:21:08Z</time>
      </trkpt>
      <trkpt lat="44.66233" lon="4.68189">
        <ele>240.947632</ele>
        <time>2010-12-27T12:21:08Z</time>
      </trkpt>
      <trkpt lat="44.66238" lon="4.68222">
        <ele>237.102295</ele>
        <time>2010-12-27T12:21:08Z</time>
      </trkpt>
      <trkpt lat="44.66267" lon="4.68213">
        <ele>232.776489</ele>
        <time>2010-12-27T12:21:08Z</time>
      </trkpt>
      <trkpt lat="44.66263" lon="4.6826">
        <ele>231.814941</ele>
        <time>2010-12-27T12:21:08Z</time>
      </trkpt>
      <trkpt lat="44.66283" lon="4.68316">
        <ele>228.931152</ele>
        <time>2010-12-27T12:21:08Z</time>
      </trkpt>
      <trkpt lat="44.66282" lon="4.68378">
        <ele>226.047119</ele>
        <time>2010-12-27T12:21:08Z</time>
      </trkpt>
      <trkpt lat="44.66278" lon="4.68429">
        <ele>223.163208</ele>
        <time>2010-12-27T12:21:08Z</time>
      </trkpt>
      <trkpt lat="44.66315" lon="4.68423">
        <ele>222.201782</ele>
        <time>2010-12-27T12:21:08Z</time>
      </trkpt>
      <trkpt lat="44.66346" lon="4.68425">
        <ele>222.201782</ele>
        <time>2010-12-27T12:21:08Z</time>
      </trkpt>
      <trkpt lat="44.66377" lon="4.68448">
        <ele>226.047119</ele>
        <time>2010-12-27T12:21:08Z</time>
      </trkpt>
    </trkseg>
  </trk>
</gpx>